Weather in Magwe

Myanmar     20°07′36″N   94°55′59″E
temp.,
°C
wind,
m/s
gust,
m/s
humid.,
%
clouds,
%
prec.,
mm/h
press.,
hPa
HPBL,
m
13 april, tue
tue1300:30+30sw355355 0.0 1009242
03:30+29s585729 0.0 1009393
06:30+28sse47595 0.0 1010460
09:30+33s443966 0.0 1011997
12:30+38s34227 0.0 10082396
15:30+40ene161618 0.0 10043544
18:30+38wsw79229 0.0 1004850
21:30+31wsw484692 0.0 1008464
14 april, wed
wed1400:30+29sse45461 0.0 1008273
03:30+28s4647100 0.0 1007223
06:30+27s2649100 0.0 1010219
09:30+33s3335100 0.0 1011934
12:30+37sw1122100 0.0 10091890
15:30+39se0119100 0.0 10052540
18:30+37e1120100 0.0 100417
21:30+31wsw59445 0.0 1007350
15 april, thu
thu1500:30+29sw365251 0.0 1006276
03:30+28sse484977 0.0 1006261
06:30+27sse48510 0.0 1008349
09:30+33s44340 0.0 10101065
12:30+38ssw33230 0.0 10071979
15:30+40se23171 0.0 10033537
18:30+37sw782554 0.0 1003798
21:30+30wsw610530 0.0 1007414
16 april, fri
fri1600:30+28ssw365898 0.0 1006362
03:30+28sse5756100 0.0 1006343
06:30+27sse4862100 0.0 1008414
09:30+33s453787 0.0 10101106
12:30+38sw342328 0.0 10072242
15:30+40nw35175 0.0 10033462
18:30+34nnw793030 0.0 1004660
21:30+31w474317 0.0 1007405
17 april, sat
sat1700:30+28wsw476447 0.0 1008352
03:30+28sse346299 0.0 1008279
06:30+28ssw2359100 0.0 1010278
09:30+32s11412 0.0 10121148
12:30+37s332611 0.0 10091940
15:30+40sse341612 0.0 10043507
18:30+37s562138 0.0 1005570
21:30+31wsw58448 0.0 1008447